Latest Coastal Weather Observations for Maatsuyker Island

IDT60701

Issued at 1:21 pm EDT Friday 19 December 2014 (issued every 10 minutes, with the page automatically refreshed every 10 minutes)

About coastal observations | Map of coastal stations | Coastal observations for TAS | Marine services | Other Formats
Station Details ID: 094041 Name: MAATSUYKER ISLAND LIGHTHOUSE Lat: -43.66 Lon: 146.27 Height: 146.5 m
Data from the previous 72 hours. | See also: Recent months at Maatsuyker Island
Date/Time
EDT
Temp

°C
Wind Pressure Rain
since 9am
mm
Weather Cloud Vis
km
Sea
Height
m
Swell
Dir
 
Speed
knots
Gust
knots
hPa Trend Height
m
Period
s
Dir
19/01:00pm 12.3 NW 31 35 1012.0 - 0.2 - - - - - - -
19/12:30pm 12.0 NW 31 34 1011.8 - 0.2 - - - - - - -
19/12:00pm 11.9 NW 29 34 1011.9 - 0.2 - - - - - - -
19/11:30am 11.8 NW 29 33 1012.1 - 0.2 - - - - - - -
19/11:00am 11.7 NW 29 31 1012.0 - 0.2 - - - - - - -
19/10:30am 11.6 NW 28 31 1011.9 - 0.2 - - - - - - -
19/10:00am 10.8 NW 26 29 1011.9 - 0.2 - - - - - - -
19/09:34am 9.2 NW 20 38 1012.2 - 0.0 - - - - - - -
19/09:30am 8.9 NW 33 38 1011.7 - 0.0 - - - - - - -
19/09:23am 10.2 WNW 32 35 1011.7 - 0.0 - - - - - - -
19/09:21am 10.6 NW 18 35 1011.9 - 0.0 - - - - - - -
19/09:00am 10.1 WNW 10 15 1012.1 R 4.0 Showers Partly cloudy 20 <0.5 3.5 12 SW
19/08:30am 9.9 W 15 30 1011.7 - 3.6 - - - - - - -
19/08:00am 9.9 W 13 16 1011.5 - 3.6 - - - - - - -
19/07:30am 9.9 W 13 18 1011.1 - 3.6 - - - - - - -
19/07:09am 9.8 WSW 15 27 1010.9 - 3.6 - - - - - - -
19/07:00am 10.1 WNW 20 24 1010.7 - 3.6 - - - - - - -
19/06:30am 9.9 WNW 17 21 1010.3 - 3.6 - - - - - - -
19/06:00am 9.7 WNW 13 20 1010.0 R 3.6 Fine Mostly cloudy 7 <0.5 3.5 11 SW
19/05:30am 9.7 W 14 18 1009.7 - 3.6 - - - - - - -
19/05:00am 9.4 WNW 13 16 1009.3 - 3.6 - - - - - - -
19/04:30am 9.1 WSW 14 20 1009.0 - 3.6 - - - - - - -
19/04:00am 9.4 W 19 23 1008.5 - 3.6 - - - - - - -
19/03:30am 9.2 W 15 20 1008.4 - 3.6 - - - - - - -
19/03:09am 9.8 W 19 31 1008.5 - 3.4 - - - - - - -
19/03:00am 9.8 W 16 21 1008.2 - 3.4 - - - - - - -
19/02:30am 10.2 W 18 22 1008.2 - 3.4 - - - - - - -
19/02:00am 10.0 WNW 19 24 1007.9 - 3.4 - - - - - - -
19/01:30am 10.0 W 21 25 1007.6 - 3.4 - - - - - - -
19/01:00am 10.1 W 18 23 1007.5 - 3.4 - - - - - - -
19/12:30am 9.9 W 20 25 1007.2 - 3.4 - - - - - - -
19/12:00am 9.7 W 21 26 1006.9 - 3.2 - - - - - - -
 
Date/Time
EDT
Temp

°C
Wind Pressure Rain
since 9am
mm
Weather Cloud Vis
km
Sea
Height
m
Swell
Dir
 
Speed
knots
Gust
knots
hPa Trend Height
m
Period
s
Dir
18/11:30pm 10.3 WNW 22 26 1006.6 - 3.2 - - - - - - -
18/11:00pm 10.5 NW 24 28 1006.1 - 3.2 - - - - - - -
18/10:30pm 10.6 WNW 26 30 1006.0 - 3.2 - - - - - - -
18/10:00pm 10.2 WNW 21 31 1006.1 - 3.2 - - - - - - -
18/09:30pm 10.3 NW 25 31 1005.4 - 2.8 - - - - - - -
18/09:00pm 10.9 NW 33 37 1004.6 - 2.4 - - - - - - -
18/08:30pm 11.6 NW 36 40 1003.8 - 2.2 - - - - - - -
18/08:00pm 11.9 NW 38 42 1003.1 - 2.2 - - - - - - -
18/07:30pm 12.0 NW 37 42 1002.3 - 2.2 - - - - - - -
18/07:00pm 11.9 NW 36 40 1002.0 - 2.2 - - - - - - -
18/06:30pm 11.9 NW 38 42 1001.3 - 2.2 - - - - - - -
18/06:00pm 12.2 NW 39 43 1000.2 - 2.2 - - - - - - -
18/05:30pm 12.2 NW 37 45 999.8 - 2.2 - - - - - - -
18/05:19pm 12.4 NW 33 43 999.7 - 2.2 - - - - - - -
18/05:00pm 12.1 NNW 33 41 999.2 - 2.2 - - - - - - -
18/04:30pm 11.7 NNW 28 35 999.4 - 2.2 - - - - - - -
18/04:00pm 11.7 NNW 24 32 999.4 - 2.2 - - - - - - -
18/03:30pm 11.3 NNW 22 28 999.8 - 1.8 - - - - - - -
18/03:00pm 11.5 NNW 22 37 999.3 R 1.8 Showers Cloudy 10 1 3.0 13 SW
18/02:33pm 11.4 NNW 22 33 999.1 - 1.6 - - - - - - -
18/02:30pm 11.6 NNW 22 29 999.1 - 1.4 - - - - - - -
18/02:13pm 11.9 NW 21 32 999.2 - 0.8 - - - - - - -
18/02:00pm 12.5 NNW 21 27 999.2 - 0.6 - - - - - - -
18/01:44pm 12.6 NNW 23 33 999.1 - 0.6 - - - - - - -
18/01:30pm 12.6 NNW 24 31 999.0 - 0.4 - - - - - - -
18/01:15pm 13.2 NNW 31 34 998.5 - 0.2 - - - - - - -
18/01:13pm 13.9 NNW 18 33 998.8 - 0.0 - - - - - - -
18/01:00pm 15.0 NNW 15 21 999.0 - 0.0 - - - - - - -
18/12:45pm 15.3 NNW 19 29 999.0 - 0.0 - - - - - - -
18/12:30pm 15.1 N 20 28 999.0 - 0.0 - - - - - - -
18/12:11pm 16.0 NNW 16 26 998.9 - 0.0 - - - - - - -
18/12:00pm 16.0 NNW 16 22 999.2 - 0.0 - - - - - - -
18/11:31am 14.9 N 19 29 999.2 - 0.0 - - - - - - -
18/11:30am 14.9 N 19 26 999.3 - 0.0 - - - - - - -
18/11:00am 15.4 NNW 16 22 999.9 - 0.0 - - - - - - -
18/10:30am 14.4 NNW 18 23 1000.1 - 0.0 - - - - - - -
18/10:00am 13.6 NNW 18 25 1000.4 - 0.0 - - - - - - -
18/09:48am 13.9 NNW 19 29 1000.4 - 0.0 - - - - - - -
18/09:30am 13.6 NNW 17 25 1000.7 - 0.0 - - - - - - -
18/09:09am 13.6 NNW 20 30 1000.7 - 0.0 - - - - - - -
18/09:00am 13.5 NNW 13 29 1000.6 F 0.0 Fine Mostly cloudy 20 1 2.5 12 SW
18/08:30am 13.2 NNW 16 23 1001.0 - 0.0 - - - - - - -
18/08:10am 13.1 NNW 17 27 1000.9 - 0.0 - - - - - - -
18/08:00am 12.8 NNW 18 24 1001.1 - 0.0 - - - - - - -
18/07:30am 12.6 NNW 15 20 1001.3 - 0.0 - - - - - - -
18/07:00am 12.1 N 14 19 1001.4 - 0.0 - - - - - - -
18/06:30am 11.9 N 14 23 1001.3 - 0.0 - - - - - - -
18/06:00am 11.4 NNW 10 14 1001.6 F 0.0 Fine Mostly cloudy 12 <0.5 2.5 11 SW
18/05:30am 11.8 N 12 18 1001.5 - 0.0 - - - - - - -
18/05:00am 11.9 NNW 14 21 1001.6 - 0.0 - - - - - - -
18/04:30am 11.5 NNW 14 19 1001.6 - 0.0 - - - - - - -
18/04:00am 11.3 NNW 15 23 1001.9 - 0.0 - - - - - - -
18/03:30am 11.2 N 12 19 1002.1 - 0.0 - - - - - - -
18/03:00am 11.2 NNW 13 20 1002.4 - 0.0 - - - - - - -
18/02:30am 11.5 NNW 17 23 1002.7 - 0.0 - - - - - - -
18/02:00am 11.4 NNW 19 24 1002.7 - 0.0 - - - - - - -
18/01:30am 11.6 NNW 19 26 1003.0 - 0.0 - - - - - - -
18/01:16am 11.6 NNW 16 26 1003.1 - 0.0 - - - - - - -
18/01:00am 11.4 NNW 17 21 1003.2 - 0.0 - - - - - - -
18/12:44am 11.7 NNW 19 29 1003.2 - 0.0 - - - - - - -
18/12:30am 11.9 NNW 18 27 1003.3 - 0.0 - - - - - - -
18/12:26am 11.7 NNW 17 27 1003.3 - 0.0 - - - - - - -
18/12:00am 11.5 NNW 16 21 1003.8 - 0.0 - - - - - - -
 
Date/Time
EDT
Temp

°C
Wind Pressure Rain
since 9am
mm
Weather Cloud Vis
km
Sea
Height
m
Swell
Dir
 
Speed
knots
Gust
knots
hPa Trend Height
m
Period
s
Dir
17/11:30pm 11.5 N 15 21 1004.2 - 0.0 - - - - - - -
17/11:00pm 11.5 N 14 19 1004.4 - 0.0 - - - - - - -
17/10:30pm 11.7 NNW 16 21 1004.7 - 0.0 - - - - - - -
17/10:00pm 12.0 NNW 14 19 1004.8 - 0.0 - - - - - - -
17/09:30pm 12.2 NNW 18 22 1004.7 - 0.0 - - - - - - -
17/09:00pm 12.2 NNW 19 25 1004.6 - 0.0 - - - - - - -
17/08:30pm 12.1 NNW 18 22 1004.4 - 0.0 - - - - - - -
17/08:00pm 11.9 NNW 20 24 1004.3 - 0.0 - - - - - - -
17/07:30pm 11.6 NNW 17 25 1004.4 - 0.0 - - - - - - -
17/07:00pm 11.4 NNW 27 37 1003.6 - 0.0 - - - - - - -
17/06:30pm 12.6 NNW 26 33 1003.4 - 0.0 - - - - - - -
17/06:00pm 12.4 NNW 26 32 1003.2 - 0.0 - - - - - - -
17/05:30pm 12.7 NNW 27 32 1003.4 - 0.0 - - - - - - -
17/05:00pm 12.6 NNW 28 34 1003.2 - 0.0 - - - - - - -
17/04:30pm 12.4 NNW 30 35 1003.3 - 0.0 - - - - - - -
17/04:00pm 12.6 NNW 31 38 1003.0 - 0.0 - - - - - - -
17/03:30pm 12.4 NW 31 37 1003.1 - 0.0 - - - - - - -
17/03:00pm 12.5 NW 27 37 1002.6 R 0.0 Distant precip. Mostly cloudy 10 2 3.0 12 SW
17/02:30pm 12.5 NNW 27 32 1003.1 - 0.0 - - - - - - -
17/02:00pm 11.5 NW 34 40 1002.6 - 0.0 - - - - - - -
17/01:30pm 12.9 NW 31 35 1002.9 - 0.0 - - - - - - -
17/01:00pm 12.5 NW 32 37 1002.9 - 0.0 - - - - - - -
17/12:30pm 12.6 NW 34 38 1002.6 - 0.0 - - - - - - -
17/12:00pm 12.3 NW 34 37 1001.9 - 0.0 - - - - - - -
17/11:30am 12.2 NW 34 39 1001.5 - 0.0 - - - - - - -
17/11:00am 11.8 NW 30 36 1001.5 - 0.0 - - - - - - -
17/10:30am 11.7 WNW 27 32 1001.5 - 0.0 - - - - - - -
17/10:00am 11.7 NW 32 37 1000.9 - 0.0 - - - - - - -
17/09:30am 11.4 WNW 33 38 1000.6 - 0.0 - - - - - - -
17/09:00am 11.2 WNW 27 36 1000.3 R 1.2 Distant precip. Partly cloudy 15 2 4.0 11 SW
17/08:30am 10.8 WNW 30 34 1000.2 - 1.2 - - - - - - -
17/08:17am 10.0 WNW 29 39 1000.4 - 1.2 - - - - - - -
17/08:00am 10.9 WNW 33 39 999.3 - 1.2 - - - - - - -
17/07:30am 10.5 WNW 31 36 999.1 - 1.2 - - - - - - -
17/07:16am 10.8 WNW 31 41 998.8 - 1.2 - - - - - - -
17/07:00am 9.9 WNW 30 38 999.0 - 1.2 - - - - - - -
17/06:56am 9.8 NW 33 43 999.0 - 1.2 - - - - - - -
17/06:30am 9.9 WNW 34 40 998.0 - 1.2 - - - - - - -
17/06:17am 9.2 WNW 34 44 998.1 - 1.2 - - - - - - -
17/06:00am 9.6 WNW 30 39 997.7 R 1.2 Showers Mostly cloudy 7 2 4.0 12 SW
17/05:35am 10.3 W 27 41 997.8 - 0.8 - - - - - - -
17/05:33am 10.4 W 24 41 997.7 - 0.8 - - - - - - -
17/05:30am 10.9 WNW 35 41 996.8 - 0.8 - - - - - - -
17/05:00am 10.5 WNW 39 45 996.2 - 0.8 - - - - - - -
17/04:33am 9.5 WNW 34 44 996.7 - 0.8 - - - - - - -
17/04:30am 9.5 WNW 37 44 996.9 - 0.8 - - - - - - -
17/04:00am 10.2 WNW 40 46 995.0 - 0.8 - - - - - - -
17/03:30am 10.6 WNW 39 47 994.6 - 0.8 - - - - - - -
17/03:00am 10.4 WNW 39 45 994.2 - 0.8 - - - - - - -
17/02:30am 10.9 WNW 43 47 993.3 - 0.8 - - - - - - -
17/02:00am 10.8 WNW 40 48 992.9 - 0.8 - - - - - - -
17/01:30am 11.1 WNW 44 52 992.5 - 0.8 - - - - - - -
17/01:00am 11.2 WNW 43 49 992.2 - 0.8 - - - - - - -
17/12:30am 10.9 WNW 43 51 991.8 - 0.8 - - - - - - -
17/12:06am 10.9 WNW 40 50 991.6 - 0.8 - - - - - - -
17/12:00am 11.2 WNW 42 50 991.3 - 0.8 - - - - - - -
 
Date/Time
EDT
Temp

°C
Wind Pressure Rain
since 9am
mm
Weather Cloud Vis
km
Sea
Height
m
Swell
Dir
 
Speed
knots
Gust
knots
hPa Trend Height
m
Period
s
Dir
16/11:41pm 10.6 WNW 41 53 990.8 - 0.8 - - - - - - -
16/11:30pm 9.9 WNW 40 46 991.2 - 0.6 - - - - - - -
16/11:00pm 10.9 WNW 40 46 990.3 - 0.6 - - - - - - -
16/10:39pm 11.5 WNW 39 50 989.7 - 0.6 - - - - - - -
16/10:30pm 11.5 WNW 41 48 989.6 - 0.6 - - - - - - -
16/10:00pm 11.5 WNW 43 49 988.7 - 0.6 - - - - - - -
16/09:30pm 11.8 NW 45 56 987.0 - 0.6 - - - - - - -
16/09:03pm 11.8 NW 50 60 986.1 - 0.6 - - - - - - -
16/09:00pm 11.8 NW 51 60 985.5 - 0.6 - - - - - - -
16/08:37pm 11.9 NW 49 59 984.6 - 0.6 - - - - - - -
16/08:30pm 11.8 NW 48 54 984.6 - 0.6 - - - - - - -
16/08:03pm 12.1 NNW 43 53 983.8 - 0.6 - - - - - - -
16/08:00pm 12.1 NNW 44 53 983.9 - 0.6 - - - - - - -
16/07:39pm 12.2 NNW 43 53 983.2 - 0.6 - - - - - - -
16/07:30pm 12.3 NNW 41 50 983.1 - 0.4 - - - - - - -
16/07:05pm 13.0 NNW 33 43 983.2 - 0.4 - - - - - - -
16/07:00pm 13.1 NNW 33 42 983.1 - 0.4 - - - - - - -
16/06:30pm 13.3 NNW 26 40 983.4 - 0.4 - - - - - - -
16/06:02pm 13.0 NNW 32 46 983.2 - 0.4 - - - - - - -
16/06:00pm 13.2 NNW 32 39 983.5 - 0.4 - - - - - - -
16/05:52pm 13.5 NNW 34 40 983.6 - 0.2 - - - - - - -
16/05:47pm 14.0 NNW 22 32 984.1 - 0.2 - - - - - - -
16/05:30pm 13.8 NNW 25 32 983.9 - 0.2 - - - - - - -
16/05:12pm 13.8 NNW 32 42 984.0 - 0.2 - - - - - - -
16/05:00pm 13.9 NNW 32 41 983.8 - 0.2 - - - - - - -
16/04:30pm 14.0 NNW 34 41 984.3 - 0.2 - - - - - - -
16/04:04pm 14.5 NW 38 49 983.8 - 0.2 - - - - - - -
16/04:00pm 14.8 NW 37 43 984.1 - 0.2 - - - - - - -
16/03:56pm 14.9 NW 36 38 984.5 - 0.2 - - - - - - -
16/03:54pm 14.9 NW 24 37 984.9 - 0.2 - - - - - - -
16/03:40pm 17.2 NW 15 22 985.7 - 0.2 - - - - - - -
16/03:30pm 17.1 NW 9 11 985.9 - 0.2 - - - - - - -
16/03:00pm 17.2 N 10 18 985.7 F 0.2 Haze Partly cloudy 10 <0.5 3.5 14 SW
16/02:30pm 16.1 N 14 20 986.8 - 0.2 - - - - - - -
16/02:00pm 14.0 NNW 16 19 988.1 - 0.2 - - - - - - -
16/01:30pm 13.3 NNW 20 23 988.9 - 0.2 - - - - - - -

Other Formats:

Comma delimited format used in spreadsheet applications
http://www.bom.gov.au/fwo/IDT60701/IDT60701.94962.axf

JavaScript Object Notation format (JSON) in row-major order
http://www.bom.gov.au/fwo/IDT60701/IDT60701.94962.json